Location: Bijele Vode
(45.2833°N, 16.2000°E)
Time: 00:15:54
(UTC+00:00)

Cosmos 2285 Rocket - Pass Details

Date: 18 September 2020
Orbit: 970 x 1000 km, 74.0° (Epoch: 26 October)

Event Time Altitude Azimuth Distance (km) Brightness Sun altitude
Rises 19:31:50 0° 202° (SSW) 3,650 6.9 -26.1°
Reaches altitude 10° 19:34:21 10° 203° (SSW) 2,709 6.2 -26.5°
Maximum altitude 19:40:39 82° 291° (WNW) 991 4.0 -27.4°
Drops below altitude 10° 19:47:01 10° 20° (NNE) 2,743 6.5 -28.4°
Sets 19:49:35 0° 21° (NNE) 3,699 7.2 -28.7°
